[[{"header":{"parameterUnit":"m.s-1","parameterCategory":1,"la1":30.2991,"la2":30.254,"lo1":-89.0895,"lo2":-89.0444,"dy":0.0017,"dx":0.0017,"nx":28,"ny":28,"refTime":"2025-05-31T03:00:00:Z","depth":0,"parameterNumber":2,"parameterNumberName":"U-component_of_WINDS"},"data":[0,0,0,0,0,0,0,0,0,0,0,0,0,0,0,0,0,0,0,0,0,0,0,0,0,0,0,0,0,0,0,0,0,0,0,0,0,0,0,0,0,0,0,0,0,0,0,0,0,0,0,0,0,0,0,0,0,0,1.8873,1.8875,0,1.8997,1.8998,1.9,1.9021,1.902,1.9019,1.9018,1.9145,1.9149,1.9154,0,0,0,0,0,0,0,0,0,0,0,0,0,1.8653,1.8657,1.8873,1.8875,1.8876,1.8997,1.8999,1.9,1.9022,1.902,1.9019,1.9018,1.9144,1.9149,1.9154,0,0,0,0,0,0,0,0,0,0,0,0,0,1.876,1.8658,1.8873,1.8901,1.8905,1.8996,1.8999,1.9001,1.9022,1.902,1.9019,1.9017,1.9142,1.9148,1.9155,1.9226,0,0,1.9175,1.9178,0,0,0,0,0,0,0,0,1.8754,1.8768,1.8896,1.89,1.8904,1.8992,1.8967,1.9076,1.9022,1.8978,1.9018,1.9017,1.9096,1.9106,1.9133,1.9232,1.9238,1.9175,1.9179,1.9182,1.9184,0,0,0,0,0,0,0,1.8746,1.8763,1.8922,1.8898,1.8903,1.8907,1.8921,1.8988,1.9044,1.8981,1.8983,1.8998,1.9098,1.9126,1.9136,1.924,1.9175,1.9181,1.9185,1.9188,1.94,1.9402,0,0,0,0,0,0,1.8734,1.8756,1.8918,1.8926,1.8824,1.8913,1.8928,1.8966,1.9043,1.9054,1.8999,1.8998,1.9116,1.9128,1.914,1.9226,1.9182,1.9188,1.9192,1.9399,1.9401,1.9403,0,0,0,0,0,0,1.8729,1.8748,1.8913,1.8842,1.8863,1.8918,1.896,1.8969,1.8997,1.9056,1.9066,1.9018,1.9115,1.9131,1.9204,1.9231,1.9191,1.9197,1.9396,1.9399,1.9402,1.94,0,0,0,0,0,0,1.8723,1.8746,1.8775,1.8842,1.8867,1.8975,1.8962,1.8972,1.9009,1.9009,1.9077,1.9087,1.9115,1.9194,1.921,1.9239,1.9202,1.9394,1.9398,1.9401,1.9398,1.9402,1.9406,0,0,0,0,0,1.8715,1.877,1.8776,1.8796,1.8903,1.8977,1.8991,1.9023,1.9011,1.9039,1.9076,1.9084,1.9226,1.9201,1.922,1.9251,1.9393,1.9397,1.9401,1.9396,1.9402,1.9406,0,0,0,0,0,0,1.8706,1.878,1.8787,1.8866,1.8915,1.8981,1.9017,1.9028,1.9081,1.9079,1.9116,1.9131,1.9201,1.9234,1.9206,1.9322,1.9308,1.9316,1.9299,1.9304,1.9308,1.9298,1.9208,0,0,0,0,0,1.8712,1.8766,1.8828,1.8892,1.8916,1.8962,1.8996,1.9015,1.9068,1.9088,1.9131,1.9181,1.9237,1.9273,1.9327,1.9403,1.9417,1.9434,1.9438,1.9441,1.9446,1.9486,1.9493,1.9415,1.9415,1.9415,0,0,1.8728,1.8775,1.8807,1.8891,1.8931,1.8985,1.898,1.9038,1.9077,1.9097,1.9168,1.9201,1.9259,1.9333,1.9368,1.9362,1.9471,1.9446,1.9448,1.9452,1.9491,1.9498,1.9505,1.9418,1.9418,1.9417,0,0,1.8782,1.8825,1.8881,1.892,1.8981,1.9011,1.9024,1.9088,1.911,1.9182,1.9197,1.9244,1.934,1.938,1.9412,1.9479,1.9487,1.9496,1.9516,1.9555,1.9561,1.9566,1.9587,1.9595,1.9502,1.9502,1.9502,0,1.8793,1.8876,1.8908,1.8964,1.9,1.902,1.9075,1.9113,1.9188,1.9211,1.9204,1.9322,1.9363,1.9445,1.946,1.9487,1.9502,1.9488,1.9557,1.9563,1.9569,1.9589,1.9597,1.9502,1.9502,1.9502,1.9502,0,1.8885,1.8941,1.8979,1.905,1.909,1.9146,1.9185,1.9222,1.9238,1.9268,1.9339,1.9388,1.9451,1.9473,1.949,1.9556,1.955,1.955,1.9536,1.9576,1.9596,1.9604,1.9503,1.9503,1.9502,1.9502,0,0,1.8938,1.9024,1.9037,1.9068,1.9135,1.9179,1.9234,1.9296,1.9325,1.9376,1.9422,1.9501,1.95,1.9537,1.9558,1.9592,1.9638,1.9587,1.9589,1.9592,1.9711,1.9709,1.9718,1.9644,1.9646,1.9647,1.9705,0,1.8998,1.9098,1.9128,1.9211,1.9262,1.928,1.9329,1.9374,1.9403,1.945,1.9483,1.9537,1.9533,1.9555,1.9589,1.9625,1.9662,1.9621,1.9686,1.9688,1.9669,1.9729,1.9728,1.9781,1.9713,1.9715,1.9716,0,1.9083,1.9133,1.9221,1.9279,1.9301,1.9344,1.9401,1.9446,1.9497,1.9516,1.9556,1.9574,1.9631,1.9615,1.9693,1.9665,1.9693,1.9714,1.9717,1.9723,1.9703,1.9734,1.9799,1.9805,1.9729,1.9728,1.9727,0,1.9108,1.9199,1.9263,1.9289,1.9359,1.9388,1.9418,1.9468,1.9502,1.9551,1.9573,1.9629,1.9659,1.9702,1.9733,1.9719,1.9808,1.9795,1.9824,1.9823,1.9841,1.9839,1.9908,1.9862,1.9862,1.9862,1.9862,0,1.9172,1.9225,1.9275,1.9314,1.9372,1.9405,1.9462,1.9494,1.9537,1.9581,1.9601,1.9642,1.9683,1.9729,1.9754,1.9813,1.9828,1.9843,1.9849,1.984,1.9838,1.9858,1.9854,1.9864,1.9863,1.9863,1.9863,0,1.9211,1.9247,1.9317,1.9376,1.9392,1.9432,1.9483,1.9521,1.955,1.9605,1.962,1.9667,1.9721,1.9757,1.9828,1.9845,1.9909,1.9915,1.9891,1.9893,1.9919,1.9915,2.0002,2.0014,1.9962,1.9962,1.9963,0,1.9248,1.9289,1.9351,1.9382,1.9412,1.9462,1.9496,1.9529,1.9564,1.9624,1.9654,1.971,1.9756,1.9843,1.9882,1.9936,1.9942,1.9968,1.995,1.9939,1.9939,1.9935,1.9938,1.9971,1.9971,1.9972,1.9972,0,1.9309,1.9324,1.9373,1.9426,1.9466,1.951,1.9554,1.9578,1.9619,1.9657,1.9713,1.9748,1.9819,1.9874,1.993,1.9961,1.9972,1.9977,1.9986,1.9977,1.9961,1.9967,1.9897,1.9975,1.9975,1.9974,1.9974,1.9974,1.9347,1.9382,1.9431,1.9484,1.952,1.956,1.9597,1.9631,1.9678,1.9737,1.9754,1.9812,1.986,1.9937,1.9968,2.0013,2.001,2.0023,2.0026,2.0029,2.0027,1.9955,2.0023,2.0023,2.0023,2.0023,2.0023,0,1.9407,1.9439,1.9486,1.9546,1.9587,1.9594,1.9643,1.9676,1.9726,1.977,1.9814,1.9877,1.9929,1.9972,2.0026,2.0053,2.006,2.0066,2.0063,2.007,2.0029,2.0014,2.006,2.006,2.006,2.006,2.006,2.006,1.9443,1.9502,1.9523,1.96,1.9631,1.9687,1.9714,1.975,1.9785,1.9853,1.9897,1.9924,1.9967,2.0023,2.0071,2.0082,2.01,2.0105,2.0117,2.0077,2.0073,2.0069,2.0056,2.0109,2.0109,2.0154,2.0154,2.0155]},{"header":{"parameterUnit":"m.s-1","parameterCategory":1,"la1":30.2991,"la2":30.254,"lo1":-89.0895,"lo2":-89.0444,"dy":0.0017,"dx":0.0017,"nx":28,"ny":28,"refTime":"2025-05-31T03:00:00:Z","depth":0,"parameterNumber":3,"parameterNumberName":"V-component_of_WINDS"},"data":[0,0,0,0,0,0,0,0,0,0,0,0,0,0,0,0,0,0,0,0,0,0,0,0,0,0,0,0,0,0,0,0,0,0,0,0,0,0,0,0,0,0,0,0,0,0,0,0,0,0,0,0,0,0,0,0,0,0,2.181,2.1809,0,2.176,2.1759,2.1759,2.1699,2.1698,2.1697,2.1696,2.1645,2.1645,2.1644,0,0,0,0,0,0,0,0,0,0,0,0,0,2.1853,2.1852,2.181,2.1809,2.1809,2.176,2.1759,2.1759,2.1699,2.1698,2.1697,2.1696,2.1645,2.1645,2.1644,0,0,0,0,0,0,0,0,0,0,0,0,0,2.1822,2.1852,2.181,2.1773,2.1769,2.176,2.1759,2.1758,2.1699,2.1698,2.1696,2.1695,2.1646,2.1645,2.1644,2.1667,0,0,2.1642,2.1641,0,0,0,0,0,0,0,0,2.1823,2.182,2.1779,2.1776,2.1771,2.1734,2.1756,2.1728,2.17,2.1726,2.1696,2.1695,2.1676,2.1673,2.1666,2.1665,2.1663,2.1642,2.1641,2.1641,2.1641,0,0,0,0,0,0,0,2.1826,2.1822,2.179,2.1779,2.1774,2.1759,2.1753,2.175,2.1709,2.1723,2.1719,2.1714,2.1673,2.1667,2.1665,2.1662,2.1642,2.1641,2.1641,2.164,2.1675,2.1676,0,0,0,0,0,0,2.1833,2.1824,2.1792,2.1789,2.1794,2.1759,2.1752,2.1747,2.1709,2.1702,2.1715,2.1711,2.1669,2.1666,2.1663,2.1685,2.1641,2.164,2.164,2.1673,2.1675,2.1676,0,0,0,0,0,0,2.1835,2.1831,2.1794,2.1805,2.1799,2.176,2.1755,2.1747,2.1741,2.1703,2.1695,2.1716,2.1668,2.1664,2.1666,2.1683,2.164,2.1639,2.1672,2.1674,2.1676,2.1733,0,0,0,0,0,0,2.1836,2.1832,2.1841,2.1806,2.1799,2.1799,2.1756,2.1747,2.174,2.1734,2.1702,2.1695,2.1666,2.1667,2.1665,2.1681,2.1639,2.167,2.1673,2.1675,2.1729,2.1737,2.1743,0,0,0,0,0,2.1838,2.1859,2.1841,2.1838,2.1809,2.18,2.1796,2.1762,2.1741,2.1749,2.1725,2.1696,2.1682,2.1668,2.1665,2.1681,2.1669,2.1672,2.1675,2.1726,2.1735,2.1743,0,0,0,0,0,0,2.1898,2.1854,2.1834,2.1845,2.1826,2.179,2.1799,2.1773,2.176,2.1756,2.1715,2.1708,2.1715,2.1698,2.1684,2.17,2.1671,2.1673,2.1711,2.1719,2.1726,2.1729,2.1638,0,0,0,0,0,2.1912,2.1908,2.187,2.1884,2.1875,2.1839,2.1834,2.1809,2.1789,2.178,2.1756,2.1737,2.1728,2.1723,2.1712,2.1727,2.1718,2.1736,2.1743,2.1749,2.1751,2.1755,2.1763,2.1686,2.1686,2.1686,0,0,2.1942,2.1918,2.1918,2.1895,2.1878,2.1874,2.1833,2.1831,2.1828,2.178,2.178,2.1762,2.1738,2.1746,2.1748,2.1732,2.177,2.1753,2.1757,2.1757,2.1759,2.1767,2.1773,2.1688,2.1688,2.1688,0,0,2.1994,2.1976,2.1984,2.1968,2.1942,2.1917,2.1919,2.1886,2.1872,2.1871,2.1835,2.183,2.1816,2.1799,2.1789,2.1834,2.1806,2.1832,2.1867,2.1872,2.1878,2.1883,2.1897,2.1903,2.1834,2.1834,2.1835,0,2.2035,2.2028,2.1992,2.1992,2.1982,2.1938,2.1946,2.1931,2.1904,2.1898,2.1881,2.186,2.1841,2.1844,2.1854,2.1848,2.1848,2.1835,2.188,2.1884,2.1889,2.1902,2.1907,2.1838,2.1837,2.1837,2.1837,0,2.2078,2.2074,2.2083,2.2057,2.2049,2.2053,2.2016,2.2012,2.1988,2.1965,2.1964,2.1939,2.1922,2.1921,2.1899,2.192,2.1911,2.1887,2.1857,2.19,2.1911,2.1916,2.1842,2.1841,2.184,2.1839,0,0,2.2167,2.212,2.2124,2.211,2.2078,2.2074,2.2076,2.2059,2.2055,2.2037,2.2036,2.2024,2.2002,2.199,2.1965,2.1969,2.2004,2.1945,2.1943,2.1955,2.2024,2.2041,2.2048,2.1986,2.1986,2.1987,2.2026,0,2.2212,2.2212,2.2179,2.2187,2.2182,2.214,2.2141,2.2121,2.2099,2.2091,2.2067,2.2058,2.203,2.2022,2.2025,2.1999,2.2017,2.1996,2.1983,2.1983,2.199,2.2054,2.2073,2.211,2.203,2.2031,2.2031,0,2.2265,2.225,2.2258,2.2224,2.222,2.2222,2.2203,2.2196,2.2172,2.2156,2.2142,2.2113,2.2111,2.2082,2.2077,2.2064,2.2057,2.2043,2.2044,2.2041,2.2009,2.2051,2.2122,2.2127,2.2038,2.2038,2.2037,0,2.2327,2.2309,2.2311,2.2301,2.2262,2.2263,2.2247,2.2222,2.2213,2.2196,2.219,2.2173,2.2164,2.2151,2.2118,2.21,2.2116,2.2086,2.2102,2.2103,2.2107,2.2107,2.2175,2.2104,2.2104,2.2104,2.2104,0,2.2381,2.2387,2.2338,2.2339,2.2344,2.2306,2.2312,2.2291,2.2269,2.2264,2.2227,2.2224,2.218,2.2172,2.2146,2.2145,2.2141,2.2127,2.212,2.213,2.2131,2.2124,2.212,2.2105,2.2105,2.2105,2.2104,0,2.2451,2.2419,2.2418,2.238,2.2371,2.2376,2.2344,2.2343,2.2319,2.2313,2.231,2.2271,2.2259,2.2225,2.2204,2.2186,2.2192,2.2179,2.22,2.2195,2.2213,2.2211,2.2279,2.2285,2.2211,2.2212,2.2212,0,2.2487,2.2491,2.2454,2.2448,2.2433,2.2425,2.2416,2.2378,2.2369,2.2341,2.2343,2.2328,2.2313,2.2295,2.2265,2.2248,2.2234,2.2259,2.2231,2.2241,2.2233,2.2233,2.2232,2.2265,2.2266,2.2266,2.2267,0,2.2554,2.2537,2.2525,2.2508,2.2497,2.2482,2.2464,2.2461,2.2418,2.2411,2.2397,2.2386,2.2364,2.2349,2.2327,2.2309,2.2281,2.2276,2.2278,2.2288,2.23,2.2292,2.2215,2.2275,2.2274,2.2273,2.2273,2.2273,2.2607,2.2607,2.2581,2.2569,2.2551,2.2535,2.2531,2.2506,2.2495,2.2474,2.2452,2.2441,2.2415,2.2382,2.2366,2.2356,2.2341,2.2346,2.2346,2.2348,2.2352,2.2302,2.2352,2.2352,2.2352,2.2352,2.2351,0,2.267,2.2651,2.264,2.2616,2.2606,2.258,2.2558,2.2551,2.2542,2.252,2.2507,2.2491,2.2475,2.2443,2.2424,2.2422,2.2409,2.2419,2.2418,2.2414,2.2367,2.2366,2.243,2.243,2.243,2.243,2.243,2.243,2.2702,2.2701,2.2681,2.2671,2.2651,2.264,2.263,2.2614,2.2596,2.258,2.2567,2.2546,2.252,2.2499,2.2483,2.2474,2.2468,2.2482,2.2468,2.2425,2.2417,2.241,2.2409,2.2481,2.2481,2.2516,2.2516,2.2517]}]]